TimeCDT,TemperatureF,Dew PointF,Humidity,Sea Level PressureIn,VisibilityMPH,Wind Direction,Wind SpeedMPH,Gust SpeedMPH,PrecipitationIn,Events,Conditions,WindDirDegrees,DateUTC
12:15 AM,62.2,50.9,66,30.00,10.0,SSE,3.5,-,N/A,,Scattered Clouds,150,2013-06-15 05:15:00
12:35 AM,61.5,50.9,68,30.01,10.0,Calm,Calm,-,N/A,,Scattered Clouds,0,2013-06-15 05:35:00
12:55 AM,61.0,51.1,70,30.00,10.0,Calm,Calm,-,N/A,,Scattered Clouds,0,2013-06-15 05:55:00
1:15 AM,61.5,51.4,69,30.01,10.0,Calm,Calm,-,N/A,,Overcast,0,2013-06-15 06:15:00
1:35 AM,61.0,51.4,71,30.00,10.0,SSE,3.5,-,N/A,,Mostly Cloudy,150,2013-06-15 06:35:00
1:55 AM,60.8,51.8,72,30.00,10.0,Calm,Calm,-,N/A,,Mostly Cloudy,0,2013-06-15 06:55:00
2:15 AM,60.4,51.8,73,29.99,10.0,Calm,Calm,-,N/A,,Mostly Cloudy,0,2013-06-15 07:15:00
2:35 AM,60.3,52.2,75,29.98,10.0,SSE,3.5,-,N/A,,Mostly Cloudy,160,2013-06-15 07:35:00
2:55 AM,60.1,52.7,77,30.00,10.0,South,3.5,-,N/A,,Mostly Cloudy,170,2013-06-15 07:55:00
3:15 AM,60.8,53.6,77,30.00,10.0,SSW,3.5,-,N/A,,Overcast,200,2013-06-15 08:15:00
3:35 AM,60.6,54.1,79,29.98,10.0,South,3.5,-,N/A,,Overcast,180,2013-06-15 08:35:00
3:55 AM,59.9,54.5,82,29.98,10.0,Calm,Calm,-,N/A,,Overcast,0,2013-06-15 08:55:00
4:15 AM,59.5,54.7,84,29.97,10.0,Calm,Calm,-,N/A,,Mostly Cloudy,0,2013-06-15 09:15:00
4:35 AM,58.6,54.5,86,29.96,10.0,Calm,Calm,-,N/A,,Scattered Clouds,0,2013-06-15 09:35:00
4:55 AM,58.3,54.9,88,29.95,10.0,Calm,Calm,-,N/A,,Scattered Clouds,0,2013-06-15 09:55:00
5:15 AM,58.1,54.5,88,29.96,10.0,Calm,Calm,-,N/A,,Scattered Clouds,0,2013-06-15 10:15:00
5:35 AM,57.6,54.5,90,29.96,10.0,Calm,Calm,-,N/A,,Clear,0,2013-06-15 10:35:00
5:55 AM,57.9,55.0,90,29.96,10.0,Calm,Calm,-,N/A,,Mostly Cloudy,0,2013-06-15 10:55:00
6:15 AM,59.0,55.4,88,29.95,10.0,ESE,3.5,-,N/A,,Overcast,110,2013-06-15 11:15:00
6:35 AM,59.4,55.4,87,29.96,10.0,Calm,Calm,-,N/A,,Overcast,0,2013-06-15 11:35:00
6:55 AM,59.9,55.6,86,29.96,10.0,Calm,Calm,-,N/A,,Overcast,0,2013-06-15 11:55:00
7:15 AM,59.9,55.6,86,29.95,10.0,ESE,3.5,-,N/A,,Overcast,110,2013-06-15 12:15:00
7:35 AM,58.6,56.1,91,29.94,2.5,East,4.6,-,N/A,Rain,Rain,100,2013-06-15 12:35:00
7:55 AM,58.3,56.3,93,29.96,3.0,Calm,Calm,-,N/A,,Overcast,0,2013-06-15 12:55:00
8:15 AM,58.1,56.3,94,29.95,1.0,Calm,Calm,-,N/A,Rain,Rain,0,2013-06-15 13:15:00
8:35 AM,58.3,56.7,94,29.95,1.5,Calm,Calm,-,N/A,Rain,Rain,0,2013-06-15 13:35:00
8:55 AM,58.1,56.7,95,29.96,1.5,Calm,Calm,-,N/A,Rain,Light Rain,0,2013-06-15 13:55:00
9:15 AM,58.5,57.0,95,29.96,1.0,SE,3.5,-,N/A,,Heavy Drizzle,130,2013-06-15 14:15:00
9:55 AM,59.0,57.7,96,29.95,1.2,Calm,Calm,-,N/A,Rain,Rain,0,2013-06-15 14:55:00
10:15 AM,59.7,58.3,95,29.95,1.2,Calm,Calm,-,N/A,Rain,Light Rain,0,2013-06-15 15:15:00
10:55 AM,60.4,59.0,95,29.95,2.5,SE,4.6,-,N/A,,Overcast,130,2013-06-15 15:55:00
11:55 AM,61.7,60.3,95,29.95,2.0,Calm,Calm,-,N/A,,Overcast,0,2013-06-15 16:55:00
12:35 PM,62.2,60.8,95,29.94,1.0,Calm,Calm,-,N/A,,Drizzle,0,2013-06-15 17:35:00
2:15 PM,64.8,62.8,93,29.93,7.0,Calm,Calm,-,N/A,,Overcast,0,2013-06-15 19:15:00
2:35 PM,64.6,62.6,93,29.93,5.0,Calm,Calm,-,N/A,,Overcast,0,2013-06-15 19:35:00
2:55 PM,65.1,62.8,92,29.92,7.0,SSW,3.5,-,N/A,,Overcast,210,2013-06-15 19:55:00
3:15 PM,65.3,63.0,92,29.92,7.0,SW,3.5,-,N/A,,Overcast,230,2013-06-15 20:15:00
3:35 PM,65.5,62.8,91,29.91,7.0,Calm,Calm,-,N/A,,Overcast,0,2013-06-15 20:35:00
3:55 PM,65.7,63.0,91,29.90,7.0,Calm,Calm,-,N/A,,Overcast,0,2013-06-15 20:55:00
4:35 PM,66.0,63.1,90,29.88,5.0,Calm,Calm,-,N/A,,Overcast,0,2013-06-15 21:35:00
4:55 PM,66.2,63.5,91,29.88,7.0,Calm,Calm,-,N/A,,Overcast,0,2013-06-15 21:55:00
5:15 PM,65.7,63.5,93,29.88,5.0,Calm,Calm,-,N/A,,Overcast,0,2013-06-15 22:15:00
5:35 PM,65.3,63.5,94,29.88,3.0,Calm,Calm,-,N/A,Rain,Light Rain,0,2013-06-15 22:35:00
6:15 PM,65.1,63.5,94,29.86,3.0,Calm,Calm,-,N/A,Rain,Light Rain,0,2013-06-15 23:15:00
6:35 PM,65.1,63.5,94,29.88,3.0,West,4.6,-,N/A,Rain,Light Rain,280,2013-06-15 23:35:00
7:35 PM,61.2,59.2,93,29.89,2.0,West,3.5,-,N/A,Rain,Rain,270,2013-06-16 00:35:00
7:55 PM,60.8,59.0,94,29.85,4.0,WNW,4.6,-,N/A,Rain,Light Rain,300,2013-06-16 00:55:00
8:55 PM,60.1,58.5,94,29.83,7.0,Calm,Calm,-,N/A,,Clear,0,2013-06-16 01:55:00
9:55 PM,57.2,55.9,96,29.85,1.2,Calm,Calm,-,N/A,,Mist,0,2013-06-16 02:55:00
10:35 PM,57.6,56.5,96,29.87,3.0,SSW,3.5,-,N/A,,Clear,210,2013-06-16 03:35:00
10:55 PM,57.4,56.3,96,29.88,5.0,South,3.5,-,N/A,,Clear,190,2013-06-16 03:55:00
11:15 PM,57.6,56.5,96,29.89,7.0,Calm,Calm,-,N/A,,Clear,0,2013-06-16 04:15:00
11:35 PM,57.0,55.8,96,29.88,1.8,Calm,Calm,-,N/A,,Mist,0,2013-06-16 04:35:00
11:55 PM,57.2,56.3,97,29.89,5.0,WSW,3.5,-,N/A,,Scattered Clouds,250,2013-06-16 04:55:00